[[{"header":{"parameterUnit":"m.s-1","parameterCategory":1,"la1":30.2991,"la2":30.254,"lo1":-89.0895,"lo2":-89.0444,"dy":0.0017,"dx":0.0017,"nx":28,"ny":28,"refTime":"2023-09-18T03:00:00:Z","depth":0,"parameterNumber":2,"parameterNumberName":"U-component_of_WINDS"},"data":[0,0,0,0,0,0,0,0,0,0,0,0,0,0,0,0,0,0,0,0,0,0,0,0,0,0,0,0,0,0,0,0,0,0,0,0,0,0,0,0,0,0,0,0,0,0,0,0,0,0,0,0,0,0,0,0,0,0,-3.3675,-3.3676,0,-3.3726,-3.3726,-3.3727,-3.3644,-3.3641,-3.3638,-3.3636,-3.3682,-3.3686,-3.369,0,0,0,0,0,0,0,0,0,0,0,0,0,-3.3503,-3.3507,-3.3675,-3.3676,-3.3676,-3.3726,-3.3727,-3.3727,-3.3645,-3.3641,-3.3638,-3.3635,-3.3681,-3.3686,-3.369,0,0,0,0,0,0,0,0,0,0,0,0,0,-3.3568,-3.3508,-3.3675,-3.3641,-3.3639,-3.3726,-3.3727,-3.3727,-3.3645,-3.3641,-3.3637,-3.3633,-3.368,-3.3685,-3.3691,-3.3811,0,0,-3.3709,-3.3711,0,0,0,0,0,0,0,0,-3.3565,-3.3575,-3.3646,-3.3644,-3.3641,-3.3675,-3.3683,-3.3755,-3.3646,-3.3643,-3.3636,-3.3631,-3.3683,-3.3688,-3.3707,-3.3814,-3.3816,-3.3709,-3.3713,-3.3715,-3.3717,0,0,0,0,0,0,0,-3.356,-3.3572,-3.3695,-3.3647,-3.3644,-3.3623,-3.3627,-3.3696,-3.3686,-3.3643,-3.3637,-3.3644,-3.3681,-3.3701,-3.3707,-3.3816,-3.3709,-3.3714,-3.3718,-3.372,-3.4026,-3.403,0,0,0,0,0,0,-3.3561,-3.3569,-3.3693,-3.3696,-3.3592,-3.3629,-3.3634,-3.3668,-3.3685,-3.3683,-3.3648,-3.364,-3.3693,-3.37,-3.3708,-3.385,-3.3715,-3.3721,-3.3724,-3.4021,-3.4027,-3.4032,0,0,0,0,0,0,-3.3557,-3.3572,-3.3691,-3.3631,-3.3645,-3.3637,-3.3675,-3.3671,-3.3692,-3.3689,-3.3686,-3.3671,-3.369,-3.37,-3.3787,-3.3851,-3.3723,-3.3728,-3.4016,-3.4023,-3.4029,-3.4135,0,0,0,0,0,0,-3.3553,-3.3572,-3.3618,-3.3633,-3.3648,-3.377,-3.3679,-3.3675,-3.3702,-3.3693,-3.371,-3.3708,-3.3688,-3.3779,-3.3793,-3.3856,-3.3733,-3.401,-3.4019,-3.4027,-3.4126,-3.4145,-3.4161,0,0,0,0,0,-3.3547,-3.3644,-3.362,-3.3636,-3.3706,-3.3774,-3.3782,-3.3758,-3.3708,-3.3754,-3.3753,-3.3708,-3.3843,-3.3788,-3.3803,-3.387,-3.4006,-3.4016,-3.4027,-3.4118,-3.4141,-3.4161,0,0,0,0,0,0,-3.3633,-3.3645,-3.3619,-3.3724,-3.3749,-3.376,-3.3816,-3.3784,-3.3821,-3.381,-3.3778,-3.3783,-3.3876,-3.3882,-3.3821,-3.3988,-3.3915,-3.393,-3.398,-3.4002,-3.4019,-3.4014,-3.3738,0,0,0,0,0,-3.3665,-3.3721,-3.3728,-3.382,-3.3834,-3.3824,-3.3852,-3.3833,-3.3856,-3.3865,-3.387,-3.3893,-3.3941,-3.3972,-3.4016,-3.4128,-3.413,-3.4181,-3.4199,-3.4214,-3.4225,-3.4285,-3.4307,-3.4066,-3.4066,-3.4066,0,0,-3.373,-3.3743,-3.378,-3.3838,-3.3854,-3.3912,-3.3833,-3.3896,-3.3938,-3.3874,-3.3956,-3.3962,-3.3985,-3.4086,-3.413,-3.4093,-3.4293,-3.4227,-3.4239,-3.4242,-3.4298,-3.4321,-3.4341,-3.4073,-3.4072,-3.4071,0,0,-3.3877,-3.3894,-3.3972,-3.3992,-3.402,-3.4014,-3.4033,-3.405,-3.4051,-3.4135,-3.4089,-3.4138,-3.4221,-3.424,-3.426,-3.4421,-3.438,-3.4436,-3.4526,-3.4585,-3.4604,-3.4621,-3.4676,-3.4697,-3.4448,-3.4448,-3.4449,0,-3.3952,-3.4038,-3.4016,-3.4084,-3.4111,-3.406,-3.4139,-3.4159,-3.4199,-3.4218,-3.4178,-3.4282,-3.4295,-3.4399,-3.4439,-3.4458,-3.4478,-3.4431,-3.4604,-3.462,-3.4635,-3.4688,-3.4709,-3.4455,-3.4454,-3.4453,-3.4453,0,-3.413,-3.4191,-3.4251,-3.4294,-3.4328,-3.4401,-3.439,-3.4427,-3.4406,-3.4404,-3.449,-3.4504,-3.455,-3.4574,-3.4553,-3.4676,-3.4653,-3.4609,-3.4535,-3.4665,-3.4714,-3.4734,-3.4464,-3.4462,-3.446,-3.4458,0,0,-3.4326,-3.4361,-3.4383,-3.4403,-3.4432,-3.4478,-3.455,-3.4598,-3.463,-3.4661,-3.4719,-3.4793,-3.4754,-3.4777,-3.4759,-3.4811,-3.4936,-3.4761,-3.4761,-3.4791,-3.5072,-3.5102,-3.5125,-3.4912,-3.4916,-3.4919,-3.5069,0,-3.4471,-3.4596,-3.4581,-3.47,-3.4755,-3.4711,-3.4774,-3.4798,-3.48,-3.4846,-3.4847,-3.4899,-3.4845,-3.4859,-3.4909,-3.491,-3.4991,-3.49,-3.4963,-3.4966,-3.4955,-3.5151,-3.5182,-3.5322,-3.5088,-3.5091,-3.5094,0,-3.4655,-3.4696,-3.4821,-3.4845,-3.4868,-3.4924,-3.4968,-3.5014,-3.5042,-3.5039,-3.5069,-3.5042,-3.5113,-3.5042,-3.514,-3.5078,-3.5104,-3.5109,-3.5114,-3.5115,-3.5034,-3.5155,-3.5367,-3.5386,-3.5124,-3.5121,-3.5119,0,-3.4782,-3.4869,-3.4956,-3.4974,-3.5005,-3.5046,-3.506,-3.5084,-3.5115,-3.5153,-3.5173,-3.5219,-3.5243,-3.5279,-3.5266,-3.5215,-3.5366,-3.5293,-3.5363,-3.5364,-3.5392,-3.539,-3.5608,-3.5416,-3.5416,-3.5416,-3.5415,0,-3.4943,-3.502,-3.5014,-3.5066,-3.5153,-3.5136,-3.5221,-3.523,-3.5253,-3.5306,-3.5272,-3.5322,-3.5303,-3.5352,-3.5342,-3.5424,-3.5436,-3.5434,-3.543,-3.5435,-3.5435,-3.5448,-3.5436,-3.5421,-3.542,-3.5419,-3.5418,0,-3.5097,-3.5096,-3.5187,-3.5211,-3.5219,-3.5281,-3.53,-3.535,-3.5351,-3.5419,-3.5434,-3.5435,-3.5491,-3.5483,-3.5545,-3.5539,-3.564,-3.5626,-3.5631,-3.5626,-3.5696,-3.5688,-3.5926,-3.5956,-3.5749,-3.5751,-3.5753,0,-3.5197,-3.5256,-3.5288,-3.5323,-3.5341,-3.5396,-3.5429,-3.5416,-3.5451,-3.549,-3.5535,-3.5589,-3.5631,-3.5724,-3.5729,-3.5777,-3.5761,-3.5842,-3.5767,-3.5771,-3.5759,-3.5754,-3.5759,-3.5854,-3.5857,-3.5859,-3.586,0,-3.5374,-3.5372,-3.5421,-3.5472,-3.5512,-3.555,-3.5585,-3.5615,-3.5605,-3.5647,-3.5706,-3.5739,-3.5805,-3.5859,-3.5905,-3.5918,-3.5887,-3.5885,-3.5903,-3.5906,-3.5906,-3.5905,-3.5667,-3.5878,-3.5876,-3.5875,-3.5874,-3.5873,-3.5501,-3.5553,-3.5584,-3.564,-3.5667,-3.5701,-3.5749,-3.5759,-3.5808,-3.5862,-3.5853,-3.5919,-3.5948,-3.6007,-3.6026,-3.6077,-3.6047,-3.6074,-3.608,-3.6086,-3.6093,-3.5903,-3.6086,-3.6085,-3.6085,-3.6085,-3.6084,0,-3.5674,-3.5693,-3.5746,-3.5798,-3.5843,-3.5816,-3.5854,-3.5892,-3.5952,-3.5983,-3.6027,-3.6096,-3.6149,-3.6161,-3.6212,-3.6251,-3.6238,-3.6264,-3.6259,-3.6262,-3.6118,-3.6096,-3.6274,-3.6274,-3.6274,-3.6274,-3.6274,-3.6274,-3.5768,-3.5853,-3.5856,-3.5955,-3.5973,-3.604,-3.6064,-3.6096,-3.6121,-3.62,-3.6245,-3.6255,-3.6278,-3.6331,-3.6379,-3.6381,-3.64,-3.6431,-3.6428,-3.6291,-3.6272,-3.6254,-3.6233,-3.6437,-3.6437,-3.6567,-3.6568,-3.6569]},{"header":{"parameterUnit":"m.s-1","parameterCategory":1,"la1":30.2991,"la2":30.254,"lo1":-89.0895,"lo2":-89.0444,"dy":0.0017,"dx":0.0017,"nx":28,"ny":28,"refTime":"2023-09-18T03:00:00:Z","depth":0,"parameterNumber":3,"parameterNumberName":"V-component_of_WINDS"},"data":[0,0,0,0,0,0,0,0,0,0,0,0,0,0,0,0,0,0,0,0,0,0,0,0,0,0,0,0,0,0,0,0,0,0,0,0,0,0,0,0,0,0,0,0,0,0,0,0,0,0,0,0,0,0,0,0,0,0,-0.8616,-0.8617,0,-0.8682,-0.8682,-0.8683,-0.8748,-0.8749,-0.875,-0.8751,-0.8818,-0.8819,-0.882,0,0,0,0,0,0,0,0,0,0,0,0,0,-0.8545,-0.8546,-0.8616,-0.8617,-0.8618,-0.8682,-0.8683,-0.8683,-0.8748,-0.8749,-0.875,-0.8751,-0.8818,-0.8819,-0.882,0,0,0,0,0,0,0,0,0,0,0,0,0,-0.859,-0.8546,-0.8616,-0.8657,-0.8662,-0.8681,-0.8683,-0.8684,-0.8748,-0.8749,-0.875,-0.8751,-0.8818,-0.8819,-0.882,-0.8804,0,0,-0.8825,-0.8826,0,0,0,0,0,0,0,0,-0.8587,-0.8592,-0.865,-0.8655,-0.866,-0.8708,-0.8682,-0.8724,-0.8747,-0.8715,-0.8751,-0.8752,-0.8781,-0.8785,-0.8795,-0.8807,-0.881,-0.8825,-0.8826,-0.8827,-0.8827,0,0,0,0,0,0,0,-0.8584,-0.859,-0.8642,-0.8651,-0.8657,-0.8673,-0.868,-0.8691,-0.874,-0.8718,-0.8723,-0.873,-0.8783,-0.8793,-0.8797,-0.8811,-0.8825,-0.8827,-0.8827,-0.8828,-0.8812,-0.8811,0,0,0,0,0,0,-0.8575,-0.8587,-0.864,-0.8644,-0.8626,-0.8673,-0.8681,-0.8691,-0.874,-0.8749,-0.8729,-0.8733,-0.879,-0.8795,-0.8799,-0.8783,-0.8827,-0.8828,-0.8829,-0.8814,-0.8812,-0.8811,0,0,0,0,0,0,-0.8573,-0.8579,-0.8637,-0.8617,-0.8625,-0.8673,-0.8683,-0.8692,-0.8702,-0.8748,-0.8757,-0.873,-0.8791,-0.8797,-0.8802,-0.8786,-0.8829,-0.883,-0.8815,-0.8813,-0.8811,-0.8749,0,0,0,0,0,0,-0.8571,-0.8578,-0.8572,-0.8616,-0.8626,-0.8639,-0.8682,-0.8692,-0.8704,-0.871,-0.8751,-0.8759,-0.8793,-0.88,-0.8804,-0.8789,-0.8831,-0.8817,-0.8814,-0.8812,-0.8753,-0.8745,-0.8739,0,0,0,0,0,-0.8568,-0.8553,-0.8572,-0.8578,-0.8621,-0.8638,-0.8644,-0.8682,-0.8703,-0.8697,-0.8727,-0.8758,-0.8787,-0.8799,-0.8805,-0.879,-0.8818,-0.8815,-0.8812,-0.8756,-0.8747,-0.8739,0,0,0,0,0,0,-0.8507,-0.8559,-0.8581,-0.858,-0.8604,-0.8649,-0.8644,-0.8671,-0.869,-0.8695,-0.8742,-0.875,-0.875,-0.8771,-0.8784,-0.8776,-0.8807,-0.8805,-0.8762,-0.8754,-0.8747,-0.8742,-0.8833,0,0,0,0,0,-0.8493,-0.8503,-0.8548,-0.8543,-0.8554,-0.8596,-0.8605,-0.8632,-0.8659,-0.867,-0.87,-0.8725,-0.8739,-0.8748,-0.8764,-0.8756,-0.8766,-0.8749,-0.8741,-0.8735,-0.8733,-0.8729,-0.8722,-0.8801,-0.8801,-0.8801,0,0,-0.8465,-0.8495,-0.8498,-0.8531,-0.8553,-0.8562,-0.8604,-0.8612,-0.8619,-0.8671,-0.8677,-0.87,-0.873,-0.8728,-0.8729,-0.8746,-0.8713,-0.8732,-0.8726,-0.8728,-0.8725,-0.8718,-0.8711,-0.8799,-0.8799,-0.8799,0,0,-0.8418,-0.8442,-0.844,-0.846,-0.8492,-0.852,-0.8519,-0.856,-0.8577,-0.8583,-0.8622,-0.8631,-0.8655,-0.8675,-0.8688,-0.8646,-0.8675,-0.865,-0.8614,-0.8609,-0.8603,-0.8598,-0.8582,-0.8576,-0.8648,-0.8647,-0.8647,0,-0.8379,-0.8394,-0.8435,-0.8439,-0.8452,-0.8499,-0.8496,-0.8514,-0.855,-0.8557,-0.8575,-0.8606,-0.863,-0.8632,-0.8622,-0.8631,-0.8631,-0.8646,-0.86,-0.8596,-0.8591,-0.8577,-0.8571,-0.8644,-0.8645,-0.8645,-0.8645,0,-0.8344,-0.8353,-0.8347,-0.838,-0.8392,-0.8393,-0.8433,-0.844,-0.8466,-0.8491,-0.8497,-0.8527,-0.8549,-0.8552,-0.8578,-0.8558,-0.8567,-0.8592,-0.8624,-0.858,-0.8567,-0.8561,-0.8639,-0.8641,-0.8642,-0.8642,0,0,-0.8262,-0.8315,-0.8313,-0.8327,-0.8365,-0.8373,-0.8375,-0.8396,-0.8401,-0.8424,-0.8426,-0.8445,-0.8468,-0.8482,-0.851,-0.8506,-0.847,-0.8532,-0.8534,-0.8519,-0.8448,-0.8429,-0.8422,-0.8489,-0.8488,-0.8488,-0.8446,0,-0.8222,-0.8229,-0.8264,-0.8261,-0.8269,-0.8313,-0.8315,-0.8338,-0.8361,-0.8372,-0.8398,-0.841,-0.844,-0.8449,-0.8447,-0.8475,-0.8456,-0.8478,-0.8492,-0.8492,-0.8482,-0.8415,-0.8395,-0.8354,-0.8441,-0.844,-0.844,0,-0.8176,-0.8194,-0.8191,-0.8227,-0.8232,-0.8233,-0.8254,-0.8264,-0.829,-0.8308,-0.8323,-0.8354,-0.8358,-0.8387,-0.8393,-0.8407,-0.8414,-0.8429,-0.8428,-0.8431,-0.8463,-0.8416,-0.8342,-0.8336,-0.8432,-0.8433,-0.8433,0,-0.8115,-0.8139,-0.814,-0.8151,-0.8194,-0.8193,-0.8211,-0.8238,-0.8248,-0.8267,-0.8273,-0.8292,-0.8302,-0.8316,-0.835,-0.8369,-0.8352,-0.8384,-0.8366,-0.8365,-0.8361,-0.836,-0.8287,-0.8365,-0.8365,-0.8366,-0.8366,0,-0.8066,-0.8062,-0.8113,-0.8114,-0.811,-0.8151,-0.8146,-0.8168,-0.8191,-0.8197,-0.8235,-0.8239,-0.8285,-0.8294,-0.8321,-0.8321,-0.8325,-0.8339,-0.8346,-0.8336,-0.8334,-0.8341,-0.8345,-0.8364,-0.8364,-0.8365,-0.8365,0,-0.7998,-0.8032,-0.8036,-0.8075,-0.8084,-0.808,-0.8113,-0.8115,-0.814,-0.8146,-0.815,-0.819,-0.8202,-0.8237,-0.8259,-0.8277,-0.8269,-0.8283,-0.826,-0.8264,-0.8243,-0.8245,-0.8172,-0.8164,-0.8248,-0.8247,-0.8246,0,-0.7965,-0.7963,-0.8001,-0.8006,-0.8022,-0.8031,-0.8041,-0.808,-0.8089,-0.8117,-0.8115,-0.813,-0.8144,-0.8161,-0.8192,-0.8208,-0.8223,-0.8196,-0.8226,-0.8214,-0.8222,-0.8221,-0.8221,-0.819,-0.8188,-0.8188,-0.8187,0,-0.7901,-0.7917,-0.793,-0.7948,-0.7958,-0.7974,-0.7992,-0.7995,-0.8038,-0.8046,-0.8058,-0.8069,-0.809,-0.8104,-0.8125,-0.8143,-0.8171,-0.8177,-0.8174,-0.8163,-0.8149,-0.8155,-0.8242,-0.8179,-0.818,-0.818,-0.8181,-0.8181,-0.7849,-0.7849,-0.7875,-0.7887,-0.7905,-0.792,-0.7923,-0.7948,-0.7959,-0.7979,-0.8001,-0.8011,-0.8035,-0.8066,-0.8081,-0.8089,-0.8105,-0.81,-0.8099,-0.8097,-0.8091,-0.8147,-0.8093,-0.8093,-0.8094,-0.8094,-0.8094,0,-0.7787,-0.7806,-0.7816,-0.784,-0.7849,-0.7875,-0.7896,-0.7902,-0.7909,-0.793,-0.7942,-0.7956,-0.7969,-0.8,-0.8016,-0.8016,-0.8029,-0.8019,-0.8019,-0.8022,-0.8077,-0.8078,-0.8007,-0.8007,-0.8007,-0.8007,-0.8007,-0.8007,-0.7756,-0.7756,-0.7775,-0.7784,-0.7803,-0.7812,-0.7821,-0.7835,-0.7852,-0.7865,-0.7876,-0.7895,-0.792,-0.7937,-0.795,-0.7959,-0.7963,-0.7948,-0.7961,-0.8011,-0.8019,-0.8027,-0.8028,-0.7948,-0.7948,-0.7906,-0.7906,-0.7905]}]]